Content
SEND FEEDBACK

Daily
Averages
Monthly
Summary
Norway

MOLDE, NORWAY


Home > Europe > Norway
Elevation: 10 feet     Latitude: 62 45N     Longitude: 007 16E

WEATHER
 
SELECT A DAY
Number of Records: 173,787;   Date Range: 7/1/96 - 8/25/14
 
SHARE

PRINT THIS DATA

[ ← Previous Day ]
WEATHER ALMANAC - JANUARY 31, 2013
[ Next Day → ]
[ °C ]   °F
Weather ElementAverageHighLow
Temperature33.2 °F35.6 °F (5:50 am)28.4 °F (10:20 pm)
Dewpoint30.4 °F32 °F (8:50 am)26.6 °F (6:20 am)
Humidity89.6 %100 % (6:20 pm)70 % (6:20 am)
Barometer29.23 in29.33 in (10:20 pm)29.09 in (5:50 am)
Wind Speed9 mph18.4 mph (4:20 pm)
Weather ElementAverage
Visibility5.9 mi
Wind DirectionSSW (217.8 °)

Weather ElementTotal
Precipitation---
Heating Degree Days33 (Base 65)
Averaged from 36 records on January 31, 2013
WEATHER CONDITIONS BREAKOUT
WIND DIRECTION BREAKOUT
WEATHER BY HOUR - JANUARY 31, 2013
[ °C ]   °F
Local TimeTemperatureDewpointHumidityBarometerVisibilityWind DirectionWind SpeedGust SpeedPrecipitationEventsConditions
5:50 AM35.6 °F28.4 °F75 %29.09 in6.2 miVariable5.8 mphScattered Clouds
6:20 AM35.6 °F26.6 °F70 %29.09 in6.2 miWest (270°)6.9 mphScattered Clouds
6:50 AM33.8 °F28.4 °F81 %29.12 in6.2 miSSW (200°)10.4 mphScattered Clouds
7:20 AM35.6 °F30.2 °F81 %29.12 in6.2 miWSW (250°)13.8 mphScattered Clouds
7:50 AM33.8 °F30.2 °F87 %29.12 in6.2 miWest (270°)8.1 mphScattered Clouds
8:20 AM32.0 °F28.4 °F87 %29.15 in6.2 miWest (270°)8.1 mphMostly Cloudy
8:50 AM33.8 °F32.0 °F93 %29.15 in6.2 miENE (70°)12.7 mphSnowLight Snow Showers
9:20 AM33.8 °F32.0 °F93 %29.18 in6.2 miENE (70°)12.7 mphSnowLight Snow Showers
9:50 AM33.8 °F32.0 °F93 %29.18 in6.2 miVariable4.6 mphSnowLight Snow Showers
10:20 AM33.8 °F32.0 °F93 %29.18 in6.2 miVariable2.3 mphMostly Cloudy
10:50 AM33.8 °F32.0 °F93 %29.21 in6.2 miNE (50°)3.5 mphMostly Cloudy
11:20 AM33.8 °F32.0 °F93 %29.21 in6.2 miENE (60°)4.6 mphMostly Cloudy
11:50 AM33.8 °F32.0 °F93 %29.21 in6.2 miVariable3.5 mphMostly Cloudy
12:20 PM33.8 °F32.0 °F93 %29.21 in6.2 miWest (280°)9.2 mphMostly Cloudy
12:50 PM35.6 °F32.0 °F87 %29.24 in6.2 miWest (280°)6.9 mphMostly Cloudy
1:20 PM35.6 °F32.0 °F87 %29.24 in6.2 miWSW (250°)13.8 mphMostly Cloudy
1:50 PM35.6 °F30.2 °F81 %29.24 in6.2 miWest (270°)12.7 mphMostly Cloudy
2:20 PM33.8 °F30.2 °F87 %29.24 in6.2 miWest (260°)12.7 mphScattered Clouds
2:50 PM33.8 °F30.2 °F87 %29.24 in6.2 miWest (260°)10.4 mphScattered Clouds
3:20 PM35.6 °F30.2 °F81 %29.27 in1.9 miNW (310°)6.9 mphSnowLight Snow Showers
3:50 PM33.8 °F30.2 °F87 %29.27 in6.2 miWest (280°)4.6 mphScattered Clouds
4:20 PM33.8 °F32.0 °F93 %29.27 in6.2 miWest (260°)18.4 mphScattered Clouds
4:50 PM33.8 °F32.0 °F93 %29.27 in6.2 miWest (270°)16.1 mphMostly Cloudy
5:20 PM33.8 °F30.2 °F87 %29.27 in6.2 miWest (260°)11.5 mphMostly Cloudy
5:50 PM33.8 °F30.2 °F87 %29.27 in3.7 miWest (270°)5.8 mphSnowSnow Showers
6:20 PM32.0 °F32.0 °F100 %29.27 in3.7 miWSW (250°)11.5 mphSnowSnow Showers
6:50 PM32.0 °F32.0 °F100 %29.30 in6.2 miWest (260°)8.1 mphSnowLight Snow Showers
7:20 PM32.0 °F32.0 °F100 %29.30 in6.2 miWest (270°)8.1 mphMostly Cloudy
7:50 PM32.0 °F30.2 °F93 %29.30 in6.2 miWest (260°)9.2 mphMostly Cloudy
8:20 PM32.0 °F30.2 °F93 %29.30 in6.2 miWest (280°)9.2 mphMostly Cloudy
8:50 PM32.0 °F32.0 °F100 %29.30 in6.2 miWSW (250°)12.7 mphSnowLight Snow Showers
9:50 PM32.0 °F30.2 °F93 %29.30 in6.2 miWNW (300°)11.5 mphSnowSnow Showers
10:20 PM28.4 °F26.6 °F93 %29.33 in6.2 miWNW (300°)11.5 mphScattered Clouds
10:50 PM28.4 °F26.6 °F93 %29.33 in6.2 miWNW (290°)5.8 mphScattered Clouds
11:20 PM28.4 °F26.6 °F93 %29.33 in6.2 miNW (320°)5.8 mphScattered Clouds
11:50 PM30.2 °F26.6 °F86 %29.33 in6.2 miWNW (300°)5.8 mphScattered Clouds
Hourly data recorded from ENML, located miles away from Molde, Norway







STORIES FROM OUR PARTNERS